• In Belarus
  • List of Countries
  • For 7 days
  • Water Temperature
  • Satellite Maps
  • Weather Map
  • Weather Widgets
  • user-avatar
    Login

    Hourly Weather Djelfa

    Today, 22 November, Wednesday

    Time Temperature Precipitation Wind Pressure Humidity
    00:00 +7°C° 0 mm 2 mps 666 mmHg 31%
    01:00 +6°C° 0 mm 2 mps 665 mmHg 32%
    02:00 +6°C° 0 mm 2 mps 665 mmHg 34%
    03:00 +6°C° 0 mm 2 mps 665 mmHg 35%
    04:00 +6°C° 0 mm 2 mps 665 mmHg 35%
    05:00 +7°C° 0 mm 1 mps 665 mmHg 35%
    06:00 +6°C° 0 mm 2 mps 665 mmHg 34%
    07:00 +7°C° 0 mm 2 mps 665 mmHg 33%
    08:00 +8°C° 0 mm 2 mps 665 mmHg 32%
    09:00 +9°C° 0 mm 3 mps 666 mmHg 31%
    10:00 +10°C° 0 mm 3 mps 666 mmHg 30%
    11:00 +11°C° 0 mm 3 mps 666 mmHg 30%
    12:00 +11°C° 0 mm 3 mps 666 mmHg 31%
    13:00 +11°C° 0 mm 3 mps 665 mmHg 32%
    14:00 +11°C° 0 mm 3 mps 665 mmHg 32%
    15:00 +11°C° 0 mm 3 mps 665 mmHg 33%
    16:00 +11°C° 0 mm 3 mps 665 mmHg 36%
    17:00 +10°C° 0 mm 3 mps 664 mmHg 39%
    18:00 +9°C° 0 mm 3 mps 664 mmHg 42%
    19:00 +8°C° 0 mm 3 mps 664 mmHg 45%
    20:00 +8°C° 0 mm 3 mps 664 mmHg 47%
    21:00 +7°C° 0 mm 3 mps 664 mmHg 50%
    22:00 +7°C° 0 mm 2 mps 664 mmHg 52%
    23:00 +7°C° 0 mm 2 mps 664 mmHg 54%

    Tomorrow, 23 November, Thursday

    Time Temperature Precipitation Wind Pressure Humidity
    00:00 +6°C° 0 mm 2 mps 664 mmHg 55%
    01:00 +6°C° 0 mm 2 mps 664 mmHg 56%
    02:00 +6°C° 0 mm 2 mps 664 mmHg 57%
    03:00 +7°C° 0 mm 1 mps 664 mmHg 58%
    04:00 +6°C° 0 mm 2 mps 664 mmHg 56%
    05:00 +5°C° 0 mm 2 mps 664 mmHg 54%
    06:00 +5°C° 0 mm 2 mps 664 mmHg 52%
    07:00 +7°C° 0 mm 2 mps 665 mmHg 46%
    08:00 +8°C° 0 mm 2 mps 665 mmHg 41%
    09:00 +9°C° 0 mm 2 mps 666 mmHg 35%
    10:00 +12°C° 0 mm 2 mps 666 mmHg 32%
    11:00 +12°C° 0 mm 3 mps 666 mmHg 29%
    12:00 +13°C° 0 mm 3 mps 666 mmHg 26%
    13:00 +13°C° 0 mm 3 mps 666 mmHg 26%
    14:00 +14°C° 0 mm 4 mps 666 mmHg 26%
    15:00 +14°C° 0 mm 4 mps 666 mmHg 26%
    16:00 +12°C° 0 mm 3 mps 666 mmHg 29%
    17:00 +11°C° 0 mm 3 mps 666 mmHg 33%
    18:00 +10°C° 0 mm 2 mps 666 mmHg 36%
    19:00 +9°C° 0 mm 2 mps 666 mmHg 37%
    20:00 +9°C° 0 mm 1 mps 666 mmHg 38%
    21:00 +9°C° 0 mm 1 mps 666 mmHg 40%
    22:00 +8°C° 0 mm 1 mps 666 mmHg 40%
    23:00 +8°C° 0 mm 1 mps 666 mmHg 41%

    Day after tomorrow, 24 November, Friday

    Time Temperature Precipitation Wind Pressure Humidity
    00:00 +7°C° 0 mm 1 mps 665 mmHg 41%
    01:00 +7°C° 0 mm 1 mps 665 mmHg 42%
    02:00 +7°C° 0 mm 1 mps 665 mmHg 42%
    03:00 +6°C° 0 mm 1 mps 665 mmHg 42%
    04:00 +6°C° 0 mm 1 mps 665 mmHg 43%
    05:00 +6°C° 0 mm 1 mps 665 mmHg 43%
    06:00 +5°C° 0 mm 1 mps 665 mmHg 43%
    07:00 +7°C° 0 mm 1 mps 666 mmHg 37%
    08:00 +10°C° 0 mm 1 mps 667 mmHg 32%
    09:00 +12°C° 0 mm 1 mps 668 mmHg 26%
    10:00 +13°C° 0 mm 1 mps 668 mmHg 23%
    11:00 +14°C° 0 mm 1 mps 668 mmHg 20%
    12:00 +14°C° 0 mm 0 mps 668 mmHg 18%
    13:00 +15°C° 0 mm 1 mps 668 mmHg 17%
    14:00 +16°C° 0 mm 1 mps 668 mmHg 16%
    15:00 +16°C° 0 mm 1 mps 668 mmHg 16%
    16:00 +14°C° 0 mm 1 mps 667 mmHg 19%
    17:00 +13°C° 0 mm 1 mps 667 mmHg 22%
    18:00 +11°C° 0 mm 1 mps 667 mmHg 25%
    19:00 +10°C° 0 mm 1 mps 667 mmHg 26%
    20:00 +10°C° 0 mm 1 mps 667 mmHg 27%
    21:00 +10°C° 0 mm 1 mps 667 mmHg 28%
    22:00 +9°C° 0 mm 1 mps 667 mmHg 28%
    23:00 +8°C° 0 mm 2 mps 667 mmHg 29%

    25 November, Saturday

    Time Temperature Precipitation Wind Pressure Humidity
    00:00 +8°C° 0 mm 2 mps 667 mmHg 30%
    01:00 +7°C° 0 mm 2 mps 667 mmHg 30%
    02:00 +7°C° 0 mm 2 mps 667 mmHg 31%
    03:00 +7°C° 0 mm 2 mps 666 mmHg 32%
    04:00 +6°C° 0 mm 2 mps 666 mmHg 32%
    05:00 +6°C° 0 mm 2 mps 666 mmHg 31%
    06:00 +6°C° 0 mm 2 mps 666 mmHg 31%
    07:00 +8°C° 0 mm 2 mps 667 mmHg 27%
    08:00 +10°C° 0 mm 2 mps 668 mmHg 24%
    09:00 +13°C° 0 mm 2 mps 669 mmHg 20%
    10:00 +14°C° 0 mm 2 mps 669 mmHg 18%
    11:00 +15°C° 0 mm 2 mps 669 mmHg 15%
    12:00 +17°C° 0 mm 2 mps 669 mmHg 13%
    13:00 +17°C° 0 mm 2 mps 669 mmHg 13%
    14:00 +17°C° 0 mm 2 mps 668 mmHg 12%
    15:00 +18°C° 0 mm 2 mps 668 mmHg 12%
    16:00 +16°C° 0 mm 2 mps 668 mmHg 14%
    17:00 +14°C° 0 mm 1 mps 667 mmHg 17%
    18:00 +12°C° 0 mm 1 mps 667 mmHg 20%
    19:00 +11°C° 0 mm 1 mps 667 mmHg 21%
    20:00 +11°C° 0 mm 1 mps 668 mmHg 22%
    21:00 +10°C° 0 mm 1 mps 668 mmHg 23%
    22:00 +10°C° 0 mm 1 mps 668 mmHg 23%
    23:00 +9°C° 0 mm 1 mps 667 mmHg 24%

    26 November, Sunday

    Time Temperature Precipitation Wind Pressure Humidity
    00:00 +9°C° 0 mm 1 mps 667 mmHg 25%
    01:00 +9°C° 0 mm 1 mps 667 mmHg 25%
    02:00 +9°C° 0 mm 1 mps 667 mmHg 26%
    03:00 +9°C° 0 mm 1 mps 666 mmHg 26%
    04:00 +8°C° 0 mm 1 mps 666 mmHg 27%
    05:00 +8°C° 0 mm 1 mps 666 mmHg 27%
    06:00 +8°C° 0 mm 1 mps 666 mmHg 28%
    07:00 +10°C° 0 mm 1 mps 667 mmHg 25%
    08:00 +12°C° 0 mm 1 mps 668 mmHg 22%
    09:00 +14°C° 0 mm 2 mps 669 mmHg 19%
    10:00 +15°C° 0 mm 2 mps 669 mmHg 18%
    11:00 +16°C° 0 mm 2 mps 669 mmHg 17%
    12:00 +18°C° 0 mm 3 mps 670 mmHg 16%
    13:00 +18°C° 0 mm 3 mps 669 mmHg 16%
    14:00 +18°C° 0 mm 3 mps 669 mmHg 17%
    15:00 +18°C° 0 mm 3 mps 669 mmHg 17%
    16:00 +16°C° 0 mm 2 mps 669 mmHg 20%
    17:00 +14°C° 0 mm 2 mps 668 mmHg 23%
    18:00 +12°C° 0 mm 2 mps 668 mmHg 26%
    19:00 +12°C° 0 mm 1 mps 668 mmHg 27%
    20:00 +11°C° 0 mm 1 mps 668 mmHg 28%
    21:00 +11°C° 0 mm 1 mps 669 mmHg 28%
    22:00 +10°C° 0 mm 1 mps 668 mmHg 29%
    23:00 +10°C° 0 mm 1 mps 668 mmHg 30%

    27 November, Monday

    Time Temperature Precipitation Wind Pressure Humidity
    00:00 +9°C° 0 mm 2 mps 668 mmHg 31%
    01:00 +8°C° 0 mm 2 mps 668 mmHg 35%
    02:00 +8°C° 0 mm 2 mps 668 mmHg 39%
    03:00 +8°C° 0 mm 1 mps 668 mmHg 42%
    04:00 +8°C° 0 mm 1 mps 668 mmHg 48%
    05:00 +7°C° 0 mm 1 mps 668 mmHg 53%
    06:00 +7°C° 0 mm 1 mps 668 mmHg 58%
    07:00 +8°C° 0 mm 1 mps 669 mmHg 56%
    08:00 +10°C° 0 mm 1 mps 670 mmHg 53%
    09:00 +11°C° 0 mm 1 mps 670 mmHg 50%
    10:00 +12°C° 0 mm 2 mps 670 mmHg 47%
    11:00 +13°C° 0 mm 2 mps 670 mmHg 43%
    12:00 +14°C° 0 mm 2 mps 670 mmHg 40%
    13:00 +15°C° 0 mm 2 mps 670 mmHg 40%
    14:00 +14°C° 0 mm 3 mps 670 mmHg 41%
    15:00 +14°C° 0 mm 3 mps 670 mmHg 42%
    16:00 +14°C° 0 mm 2 mps 670 mmHg 48%
    17:00 +12°C° 0 mm 2 mps 669 mmHg 54%
    18:00 +10°C° 0 mm 2 mps 669 mmHg 60%
    19:00 +10°C° 0 mm 1 mps 669 mmHg 63%
    20:00 +10°C° 0 mm 1 mps 669 mmHg 67%
    21:00 +9°C° 0 mm 1 mps 669 mmHg 70%
    22:00 +8°C° 0 mm 0 mps 669 mmHg 71%
    23:00 +7°C° 0 mm 0 mps 669 mmHg 72%
    Show more